This is the latest recevied weather packets stored in our database for station/object N4CRH-13. If no packets are shown the sender has not sent any weather packets the latest 10 day(s).
| Time | Temp. | Humidity | Pressure | Rain* | Wind** | Luminosity | Snow |
|---|---|---|---|---|---|---|---|
| 1777312005 | 2.78° C | 96% | 1290.6 hPa | 0 mm | - | 146 W/m² | - |
| 1777311701 | 2.78° C | 95% | 1290.8 hPa | 0 mm | - | 113 W/m² | - |
| 1777311400 | 3.33° C | 95% | 1290.7 hPa | 0 mm | - | 162 W/m² | - |
| 1777311097 | 2.78° C | 95% | 1290.9 hPa | 0 mm | - | 150 W/m² | - |
| 1777310795 | 2.78° C | 95% | 1290.4 hPa | 0 mm | - | 127 W/m² | - |
| 1777310492 | 2.78° C | 94% | 1290.6 hPa | 0 mm | - | 131 W/m² | - |
| 1777310189 | 3.33° C | 92% | 1290.6 hPa | 0 mm | - | 60 W/m² | - |
| 1777309886 | 3.89° C | 90% | 1290.8 hPa | 0 mm | - | 83 W/m² | - |
| 1777309585 | 3.89° C | 91% | 1290.4 hPa | 0 mm | - | 154 W/m² | - |
| 1777309281 | 3.89° C | 92% | 1290.3 hPa | 0 mm | - | 203 W/m² | - |
| 1777308980 | 3.33° C | 94% | 1290.2 hPa | 0 mm | - | 204 W/m² | - |
| 1777308675 | 3.33° C | 95% | 1290.2 hPa | 0 mm | - | 189 W/m² | - |
| 1777308371 | 2.78° C | 95% | 1290.3 hPa | 0 mm | - | 114 W/m² | - |
| 1777308066 | 3.33° C | 94% | 1290.3 hPa | 0 mm | - | 107 W/m² | - |
| 1777307764 | 2.78° C | 94% | 1290.2 hPa | 0 mm | - | 76 W/m² | - |
| 1777307461 | 3.33° C | 93% | 1290.2 hPa | 0 mm | - | 60 W/m² | - |
| 1777307158 | 3.33° C | 92% | 1290.2 hPa | 0 mm | - | 83 W/m² | - |
| 1777306855 | 3.33° C | 91% | 1290.2 hPa | 0 mm | - | 75 W/m² | - |
| 1777306552 | 3.89° C | 91% | 1290.2 hPa | 0 mm | - | 196 W/m² | - |
| 1777306248 | 3.89° C | 92% | 1290.3 hPa | 0 mm | - | 194 W/m² | - |
| 1777305948 | 3.89° C | 91% | 1290.1 hPa | 0 mm | - | 122 W/m² | - |
| 1777305644 | 3.89° C | 90% | 1290.2 hPa | 0 mm | - | 142 W/m² | - |
| 1777305341 | 3.89° C | 89% | 1290 hPa | 0 mm | - | 145 W/m² | - |
| 1777305041 | 3.89° C | 89% | 1290 hPa | 0 mm | - | 144 W/m² | - |
| 1777304741 | 3.89° C | 87% | 1290 hPa | 0 mm | - | 127 W/m² | - |
* Rain latest hour (hover to see other rain measurements)
** Current wind speed in m/s (hover to see current wind gust speed)